Methuen, Massachusetts, United States (01844)
Lat: 42.73N, Lon: 71.19W
Wx Zone: MAZ006
Local Info
Past Weather Observations for Thursday, August 27, 2015

NOTE: This archive is for the closest National Weather Service station to Methuen. Information may differ from the station used for current weather conditions.

Click here for Long-term Archive

Time Weather Temperature Dewpoint Humidity Pressure Winds Precip Visibility
22:54
Clear
63°F / 17°C 54°F / 12°C 73% 30.09 in
(1019 mb)
Calm - 10SM
21:54
Clear
66°F / 19°C 54°F / 12°C 64% 30.09 in
(1019 mb)
W 3.5 mph
(W 6 kph)
- 10SM
20:54
Clear
66°F / 19°C 54°F / 12°C 64% 30.09 in
(1019 mb)
W 3.5 mph
(W 6 kph)
- 10SM
19:54
Clear
68°F / 20°C 55°F / 13°C 64% 30.06 in
(1018 mb)
WNW 3.5 mph
(WNW 6 kph)
- 10SM
18:54
Clear
72°F / 22°C 54°F / 12°C 53% 30.04 in
(1017 mb)
NNW 6.9 mph
(NNW 11 kph)
- 10SM
17:54
Clear
75°F / 24°C 52°F / 11°C 44% 30.01 in
(1016 mb)
WNW 8.1 mph
(WNW 13 kph)
- 10SM
16:54
Partly Cloudy
75°F / 24°C 54°F / 12°C 47% 30.01 in
(1016 mb)
NW 4.6 mph
(NW 7 kph)
- 10SM
15:54
Mostly Cloudy
79°F / 26°C 55°F / 13°C 45% 29.98 in
(1015 mb)
W 11.5 mph
(W 19 kph)
- 10SM
14:54
Overcast
77°F / 25°C 55°F / 13°C 47% 29.98 in
(1015 mb)
NW 5.8 mph
(NW 9 kph)
- 10SM
13:54
Overcast
79°F / 26°C 55°F / 13°C 45% 29.98 in
(1015 mb)
NW 10.4 mph
(NW 17 kph)
- 10SM
12:54
Mostly Cloudy
77°F / 25°C 55°F / 13°C 47% 29.98 in
(1015 mb)
NW 5.8 mph
(NW 9 kph)
- 10SM
11:54
Mostly Cloudy
75°F / 24°C 55°F / 13°C 50% 30.01 in
(1016 mb)
NW 8.1 mph
(NW 13 kph)
- 10SM
10:54
Clear
75°F / 24°C 54°F / 12°C 47% 30.01 in
(1016 mb)
WNW 9.2 mph
(WNW 15 kph)
- 10SM
09:54
Clear
75°F / 24°C 55°F / 13°C 50% 30.04 in
(1017 mb)
SSW 8.1 mph
(SSW 13 kph)
- 10SM
08:54
Clear
73°F / 23°C 57°F / 14°C 57% 30.01 in
(1016 mb)
W 9.2 mph
(W 15 kph)
- 10SM
07:54
Clear
70°F / 21°C 55°F / 13°C 60% 30.01 in
(1016 mb)
W 5.8 mph
(W 9 kph)
- 10SM
06:54
Clear
66°F / 19°C 55°F / 13°C 68% 30.01 in
(1016 mb)
SSW 4.6 mph
(SSW 7 kph)
- 10SM
05:54
Clear
61°F / 16°C 57°F / 14°C 88% 30.01 in
(1016 mb)
SSE 3.5 mph
(SSE 6 kph)
- 10SM
04:54
Clear
61°F / 16°C 55°F / 13°C 83% 29.98 in
(1015 mb)
SSE 4.6 mph
(SSE 7 kph)
- 10SM
03:54
Clear
61°F / 16°C 55°F / 13°C 83% 29.98 in
(1015 mb)
Calm - 10SM
02:54
Partly Cloudy
63°F / 17°C 55°F / 13°C 77% 29.95 in
(1014 mb)
SSW 5.8 mph
(SSW 9 kph)
- 10SM
01:54
Partly Cloudy
64°F / 18°C 55°F / 13°C 73% 29.98 in
(1015 mb)
W 3.5 mph
(W 6 kph)
- 10SM
00:54
Mostly Cloudy
64°F / 18°C 55°F / 13°C 73% 29.98 in
(1015 mb)
SSW 4.6 mph
(SSW 7 kph)
- 10SM
Time Weather Temperature Dewpoint Humidity Pressure Winds Precip Visibility


Weather for websites

WeatherForYou.com, LLC is not responsible for any damages or problems caused by this service. Current weather conditions are obtained from the closest station including government and personal stations which may have varying degrees of accuracy. Weather forecasts are derived from the NOAA NDFD. Like all things, this site belongs to Jesus Christ... He just trusts us to maintain it. If you have any questions or comments email webmaster@weatherforyou.com

Copyright © 2015, WeatherForYou.com LLC. All rights reserved.